Location: Narrabri
(30.3170°S, 149.7830°E)
Time: 17:26:16

ISS - Visible Passes

Search period start: 22 March 2018 00:00
Search period end: 01 April 2018 00:00
Orbit: 403 x 406 km, 51.6° (Epoch: 22 March)

Date Brightness Start Highest point End Pass type
(mag) Time Alt. Az. Time Alt. Az. Time Alt. Az.
27 Mar -1.1 06:15:46 10° N 06:18:09 19° NE 06:20:34 10° E visible
29 Mar -3.3 06:07:09 14° NNW 06:09:52 58° NE 06:13:09 10° SE visible
30 Mar -1.7 05:17:52 24° ENE 05:17:52 24° ENE 05:20:27 10° ESE visible
31 Mar -3.3 06:01:05 37° WSW 06:01:42 42° SW 06:04:53 10° SSE visible
